This demonstration page uses our WeatherBlox Daily Observations layout. Learn more.

Left ArrowRight Arrow

41.86663, -103.66717

Hourly Observations for March 15, 2018

Temp ( °F °C ) Dew Point ( °F °C ) Humidity (%) Winds ( mph kmh ) Pressure ( in mb ) Visibility ( mi km ) Precip ( " mm )
12:53 am 00:53 Clear 43 6.1 25 -3.9 49 49 E 9 15 29.64 1004 10 16 N/A
1:53 am 01:53 Clear 41 5 26 -3.3 55 55 E 7 11 29.62 1003 10 16 N/A
2:53 am 02:53 Clear 41 5 26 -3.3 55 55 E 9 15 29.59 1002 10 16 N/A
3:53 am 03:53 Clear 39 3.9 27 -2.8 62 62 ESE 12 19 29.58 1002 10 16 N/A
4:53 am 04:53 Clear 42 5.6 28 -2.2 58 58 E 10 17 29.57 1001 10 16 N/A
5:53 am 05:53 Partly Cloudy 39 3.9 28 -2.2 65 65 ESE 6 9 29.59 1002 10 16 N/A
6:53 am 06:53 Clear 36 2.2 26 -3.3 67 67 ESE 5 7 29.61 1003 10 16 N/A
7:53 am 07:53 Sunny 35 1.7 27 -2.8 72 72 E 3 6 29.65 1004 10 16 N/A
8:53 am 08:53 Sunny 43 6.1 29 -1.7 58 58 E 9 15 29.65 1004 10 16 N/A
9:53 am 09:53 Sunny 49 9.4 29 -1.7 46 46 N N/A 29.64 1004 10 16 N/A
10:53 am 10:53 Sunny 55 12.8 28 -2.2 35 35 N N/A 29.61 1003 10 16 N/A
11:53 am 11:53 Sunny 63 17.2 28 -2.2 27 27 ESE 5 7 29.57 1001 10 16 N/A
12:53 pm 12:53 Mostly Cloudy 65 18.3 28 -2.2 25 25 ESE 15 24 29.54 1000 10 16 N/A
1:53 pm 13:53 Sunny 68 20 27 -2.8 21 21 ESE 16 26 29.49 999 10 16 N/A
2:53 pm 14:53 Mostly Sunny 67 19.4 28 -2.2 23 23 SE 12 19 29.46 998 10 16 N/A
3:53 pm 15:53 Cloudy 66 18.9 24 -4.4 20 20 E 22 35 29.45 997 10 16 N/A
4:53 pm 16:53 Cloudy 64 17.8 26 -3.3 24 24 E 22 35 29.45 997 10 16 N/A
5:53 pm 17:53 Mostly Cloudy 61 16.1 29 -1.7 30 30 E 18 30 29.48 998 10 16 N/A
6:53 pm 18:53 Mostly Cloudy 57 13.9 31 -0.6 37 37 ENE 15 24 29.51 999 10 16 N/A
7:53 pm 19:53 Cloudy 54 12.2 31 -0.6 42 42 ENE 14 22 29.54 1000 10 16 N/A
8:53 pm 20:53 Cloudy with Light Rain 52 11.1 32 undefined 47 47 E 14 22 29.56 1001 10 16 N/A
9:53 pm 21:53 Cloudy with Rain 45 7.2 39 3.9 80 80 NE 15 24 29.54 1001 6 10 0.06 1.52
10:30 pm 22:30 Cloudy with Heavy Rain 43 6 39 4 87 87 SSE 5 7 29.68 1005 3 4 N/A
10:53 pm 22:53 Cloudy with Rain 41 5 38 3.3 89 89 NE 7 11 29.59 1002 3 5 0.20 5.08
11:53 pm 23:53 Cloudy 40 4.4 38 3.3 93 93 NE 12 19 29.56 1001 9 14 0.03 0.76

Powered by AerisWeather